Date String (YYYY-MM-DD hh:mm:ss) UTC,Instrument flags,absolute air pressure of the measurement (hPa),sample flow rate (lpm),inlet stack bypass flow (lpm),air temperature of the measurement (°C),ambient temperature measured by the external sensor (°C),aerosol sample conditioner tube jacket temperature (°C),OPC LED temperature (°C),internal box temperature (°C),relative humidity of the measurement (%),span deviation,mass concentration of particles derived from Lorenz-Mie calculation of OPC scattering (μg/m³),mass concentration of particles derived from Lorenz-Mie calculation of OPC scattering (μg/m³),mass concentration of particles derived from Lorenz-Mie calculation of OPC scattering (μg/m³)
DateTimeUTC,F1_M11,P_M11,Q1_M11,Q2_M11,T1_M11,T2_M11,T3_M11,T4_M11,T5_M11,U1_M11,ZSPAN_M11,X0_M11,X2_M11,X1_M11
2023-10-18 19:00:00,SystemResetWarning,0832.3,4.99,000.00,028.6,027.3,000.0,037.0,030.4,15.1,0000.0,0013.86,0004.45,0003.13
2023-10-18 19:01:00,SystemResetWarning,0832.3,5.00,000.00,028.6,027.4,000.0,037.0,030.4,15.0,0000.0,0013.39,0004.42,0003.10
2023-10-18 19:02:00,SystemResetWarning,0832.3,5.00,000.00,028.6,027.5,000.0,037.0,030.5,15.0,0000.0,0013.89,0004.39,0003.09
2023-10-18 19:03:00,SystemResetWarning,0832.3,5.00,000.00,028.7,027.4,000.0,037.1,030.5,15.0,0000.0,0013.77,0004.34,0003.06
2023-10-18 19:04:00,SystemResetWarning,0832.2,4.99,000.00,028.7,025.8,000.0,037.0,030.4,15.1,0000.0,0013.38,0004.30,0002.99
2023-10-18 19:05:00,SystemResetWarning,0832.2,5.01,000.00,028.6,024.3,000.0,036.9,030.1,15.1,0000.0,0012.44,0004.29,0002.90
2023-10-18 19:06:00,SystemResetWarning,0832.3,5.01,000.00,028.5,024.2,000.0,036.9,030.0,15.1,0000.0,0011.97,0004.21,0002.83
2023-10-18 19:07:00,SystemResetWarning,0832.3,5.00,000.00,028.4,024.6,000.0,036.9,029.8,15.2,0000.0,0011.51,0004.19,0002.75
2023-10-18 19:08:00,SystemResetWarning,0832.3,5.00,000.00,028.3,025.0,000.0,036.9,029.8,15.2,0000.0,0011.05,0004.10,0002.69
2023-10-18 19:09:00,SystemResetWarning,0832.3,4.99,000.00,028.3,025.4,000.0,036.9,029.9,15.2,0000.0,0011.05,0004.05,0002.63
2023-10-18 19:10:00,SystemResetWarning,0832.3,4.99,000.00,028.3,025.8,000.0,036.9,029.9,15.3,0000.0,0011.12,0004.02,0002.57
2023-10-18 19:11:00,SystemResetWarning,0832.3,4.99,000.00,028.3,026.1,000.0,036.9,030.0,15.3,0000.0,0012.14,0004.05,0002.51
2023-10-18 19:12:00,SystemResetWarning,0832.2,5.00,000.00,028.3,026.5,000.0,036.9,030.1,15.2,0000.0,0012.71,0003.97,0002.45
2023-10-18 19:13:00,SystemResetWarning,0832.2,5.00,000.00,028.4,026.7,000.0,036.9,030.1,15.1,0000.0,0012.77,0003.87,0002.38
2023-10-18 19:14:00,SystemResetWarning,0832.2,5.00,000.00,028.4,026.9,000.0,036.9,030.2,15.1,0000.0,0012.59,0003.81,0002.34
2023-10-18 19:15:00,SystemResetWarning,0832.2,4.99,000.00,028.4,027.1,000.0,036.9,030.3,15.2,0000.0,0012.91,0003.73,0002.30
2023-10-18 19:16:00,SystemResetWarning,0832.2,4.99,000.00,028.5,027.2,000.0,036.9,030.3,15.3,0000.0,0013.41,0003.67,0002.27
2023-10-18 19:17:00,SystemResetWarning,0832.2,5.01,000.00,028.5,027.4,000.0,036.9,030.4,15.2,0000.0,0013.68,0003.62,0002.24
2023-10-18 19:18:00,SystemResetWarning,0832.2,5.01,000.00,028.6,027.5,000.0,036.9,030.4,15.0,0000.0,0013.83,0003.57,0002.22
2023-10-18 19:19:00,SystemResetWarning,0832.2,4.99,000.00,028.6,027.6,000.0,037.0,030.4,15.0,0000.0,0014.10,0003.56,0002.18
2023-10-18 19:20:00,SystemResetWarning,0832.1,4.99,000.00,028.6,026.8,000.0,037.0,030.4,15.0,0000.0,0015.23,0003.57,0002.15
2023-10-18 19:21:00,SystemResetWarning,0832.2,5.00,000.00,028.6,025.3,000.0,036.9,030.2,15.1,0000.0,0015.85,0003.55,0002.13
2023-10-18 19:22:00,SystemResetWarning,0832.2,5.01,000.00,028.5,025.1,000.0,036.9,030.2,15.2,0000.0,0015.27,0003.48,0002.11
2023-10-18 19:23:00,SystemResetWarning,0832.2,5.02,000.00,028.4,025.3,000.0,036.9,030.0,15.3,0000.0,0014.95,0003.53,0002.12
2023-10-18 19:24:00,SystemResetWarning,0832.2,5.00,000.00,028.4,025.6,000.0,036.9,030.0,15.5,0000.0,0014.44,0003.56,0002.13
2023-10-18 19:25:00,SystemResetWarning,0832.2,5.00,000.00,028.4,025.9,000.0,036.9,030.0,15.3,0000.0,0014.87,0003.57,0002.15
2023-10-18 19:26:00,SystemResetWarning,0832.2,5.00,000.00,028.4,026.3,000.0,036.9,030.1,15.6,0000.0,0016.84,0003.62,0002.17
2023-10-18 19:27:00,SystemResetWarning,0832.2,5.00,000.00,028.4,026.5,000.0,036.9,030.2,15.4,0000.0,0016.56,0003.69,0002.20
2023-10-18 19:28:00,SystemResetWarning,0832.2,5.00,000.00,028.4,026.8,000.0,036.9,030.2,15.2,0000.0,0016.62,0003.73,0002.22
2023-10-18 19:29:00,SystemResetWarning,0832.2,5.00,000.00,028.5,027.0,000.0,036.9,030.3,15.1,0000.0,0017.58,0003.77,0002.27
2023-10-18 19:30:00,SystemResetWarning,0832.2,5.00,000.00,028.5,027.1,000.0,036.9,030.3,15.1,0000.0,0017.86,0003.79,0002.31
2023-10-18 19:31:00,SystemResetWarning,0832.2,5.00,000.00,028.6,027.3,000.0,036.9,030.3,15.1,0000.0,0017.19,0003.80,0002.33
2023-10-18 19:32:00,SystemResetWarning,0832.2,5.00,000.00,028.6,027.4,000.0,037.0,030.4,15.1,0000.0,0017.35,0003.84,0002.35
2023-10-18 19:33:00,SystemResetWarning,0832.2,5.00,000.00,028.6,027.5,000.0,037.0,030.4,15.1,0000.0,0017.20,0003.81,0002.37
2023-10-18 19:34:00,SystemResetWarning,0832.2,5.00,000.00,028.7,027.4,000.0,037.0,030.5,15.0,0000.0,0016.89,0003.75,0002.36
2023-10-18 19:35:00,SystemResetWarning,0832.2,5.00,000.00,028.6,025.6,000.0,037.0,030.3,15.1,0000.0,0016.82,0003.73,0002.35
2023-10-18 19:36:00,SystemResetWarning,0832.2,5.01,000.00,028.5,024.2,000.0,036.9,030.0,15.1,0000.0,0016.77,0003.74,0002.34
2023-10-18 19:37:00,SystemResetWarning,0832.2,5.01,000.00,028.4,024.2,000.0,036.8,029.9,15.2,0000.0,0014.45,0003.76,0002.32
2023-10-18 19:38:00,SystemResetWarning,0832.2,5.01,000.00,028.3,024.5,000.0,036.8,029.7,15.3,0000.0,0013.57,0003.69,0002.30
2023-10-18 19:39:00,SystemResetWarning,0832.2,5.00,000.00,028.2,024.9,000.0,036.8,029.8,15.4,0000.0,0013.49,0003.66,0002.27
2023-10-18 19:40:00,SystemResetWarning,0832.2,5.00,000.00,028.2,025.4,000.0,036.8,029.8,15.5,0000.0,0012.59,0003.63,0002.24
2023-10-18 19:41:00,SystemResetWarning,0832.2,5.00,000.00,028.2,025.7,000.0,036.8,029.9,15.4,0000.0,0013.45,0003.57,0002.19
2023-10-18 19:42:00,SystemResetWarning,0832.2,5.00,000.00,028.2,026.1,000.0,036.8,029.9,15.5,0000.0,0013.45,0003.59,0002.16
2023-10-18 19:43:00,SystemResetWarning,0832.2,5.01,000.00,028.3,026.4,000.0,036.8,030.0,15.4,0000.0,0013.19,0003.57,0002.15
2023-10-18 19:44:00,SystemResetWarning,0832.2,5.00,000.00,028.3,026.6,000.0,036.8,030.1,15.4,0000.0,0013.46,0003.56,0002.12
2023-10-18 19:45:00,SystemResetWarning,0832.2,5.00,000.00,028.3,026.8,000.0,036.8,030.1,15.4,0000.0,0014.36,0003.56,0002.08
2023-10-18 19:46:00,SystemResetWarning,0832.2,5.00,000.00,028.4,027.0,000.0,036.8,030.2,15.4,0000.0,0015.25,0003.56,0002.08
2023-10-18 19:47:00,SystemResetWarning,0832.1,5.00,000.00,028.4,027.1,000.0,036.8,030.2,15.5,0000.0,0015.57,0003.59,0002.06
2023-10-18 19:48:00,SystemResetWarning,0832.0,4.99,000.00,028.4,027.3,000.0,036.9,030.3,15.6,0000.0,0015.70,0003.55,0002.05
2023-10-18 19:49:00,SystemResetWarning,0832.0,4.99,000.00,028.5,027.4,000.0,036.9,030.3,15.4,0000.0,0016.12,0003.58,0002.05
2023-10-18 19:50:00,SystemResetWarning,0832.0,4.99,000.00,028.5,027.5,000.0,036.9,030.4,15.4,0000.0,0016.11,0003.60,0002.05
2023-10-18 19:51:00,SystemResetWarning,0832.0,5.01,000.00,028.6,027.6,000.0,036.9,030.4,15.2,0000.0,0015.59,0003.59,0002.02
2023-10-18 19:52:00,SystemResetWarning,0832.0,5.01,000.00,028.6,027.5,000.0,036.9,030.4,15.2,0000.0,0015.00,0003.58,0002.02
2023-10-18 19:53:00,SystemResetWarning,0832.0,4.98,000.00,028.6,026.0,000.0,036.9,030.3,15.2,0000.0,0016.45,0003.53,0002.02
2023-10-18 19:54:00,SystemResetWarning,0832.0,5.01,000.00,028.5,025.1,000.0,036.8,030.2,15.1,0000.0,0016.13,0003.51,0002.01
2023-10-18 19:55:00,SystemResetWarning,0832.0,5.02,000.00,028.5,025.2,000.0,036.8,030.1,15.3,0000.0,0016.03,0003.50,0001.99
2023-10-18 19:56:00,SystemResetWarning,0831.9,5.00,000.00,028.4,025.4,000.0,036.9,030.0,15.7,0000.0,0015.20,0003.50,0001.99
2023-10-18 19:57:00,SystemResetWarning,0831.9,5.00,000.00,028.4,025.8,000.0,036.9,030.0,15.6,0000.0,0014.39,0003.46,0001.97
2023-10-18 19:58:00,SystemResetWarning,0831.9,5.01,000.00,028.4,026.1,000.0,036.9,030.1,15.7,0000.0,0013.82,0003.47,0001.98
2023-10-18 19:59:00,SystemResetWarning,0831.9,5.00,000.00,028.4,026.4,000.0,036.9,030.1,15.3,0000.0,0013.86,0003.46,0001.99
